STARLINK-31689, 59567

Orbit data source: Space-Track

STARLINK-31689, 59567 is a payload satellite owned by SpaceX/Seattle (US) in LEO that was launched on Tue, 23 Apr 2024 UTC via an FALCON 9 launch vehicle from the Air Force Eastern Test Range (AFETR). Payload-class satellites include a variety of spacecraft equipped with specific instruments for various scientific and technological missions. These include communications satellites like Starlink; space stations such as the ISS; scientific satellites like the Hubble; Earth observation satellites from companies like Planet Labs, Umbra, and HawkEye 360; GPS; miniature CubeSats for education and research; and military/defense satellites.

Loading next visibility...
Identifier
59567, 2024-076D
Orbit
LEO
Last TLE update
1 day ago
Origin
Manufacturer
SpaceX/Seattle
Mission
Operational spacecraft
Bus & Motor
STARLINK V2M, Unknown motor
Mass
730 kg wet, ~700 kg dry
Launch date (UTC)
2024-04-23 (1 year ago)
Launch vehicle
FALCON 9
Launch site
Air Force Eastern Test Range (AFETR)
Object type
Payload
Rocket body
Debris
Shape & HBR
Unknown
Radar Cross Section
Large (>1 m²)

Expand to show TLE details & history

TLE from 1 day ago
0 STARLINK-31689
1 59567U 24076D   25186.67647462 -.00002438  00000-0 -79100-4 0  9995
2 59567  43.0016 320.6807 0000972 280.5027  79.5716 15.27576546 68766
Epoch: 2025-07-05T16:14Z
TLE epoch observation values (Epoch: 2025-07-05T16:14:07.407Z)
Latitude
0.00006°
Longitude
153.2388°
Altitude
482.714 km
Speed
7.626 km/s
True Right ascension
21h 22m 43s
True Declination
0° 00' 00"
Sunlit
Object was in full shadow at epoch
Visualization orbit readout
Latitude
-29.19991°
Longitude
3.31013°
Altitude
490.478 km
Speed
7.62 km/s
Apparent Right ascension
14h 51m 47s
Apparent Declination
-56° 26' 10"
Sunlit
Object is in daylight
Visualization observer readout
Local Sidereal Time
07:53:25
Azimuth
135.776° SSE
Elevation
-39.904°
Doppler factor
1
Orbital elements
Apogee altitude
485.671 km
Perigee altitude
484.337 km
Semi-major axis
6,863.141 km
Eccentricity
0.0001
Inclination
43.0016°
RAAN
320.6807°
Arg. of periapsis
280.5027°
True anomaly
Unknown
Mean anomaly
79.5716°
Eccentric anomaly
Unknown
Mean motion
3.81732 °/min
Orbital period
94.31 mins
BSTAR
-0.0000791
Loading maneuver chart data...
Loading SW <> Apogee altitude chart data...
Loading historical data...
Loading historical data...
Loading historical data...
Loading historical data...
Loading historical data...
Loading historical data...
Loading historical data...

STARLINK-31689 Visibility forecast

Observer location: undefined°, undefined°

Span
Click to sort rows by Start time (UTC) header in descending order
Start Az.
Max El. time (UTC)
Max El. Az.
Max El.
End time (UTC)
End Az.
5 mins2025-07-07 12:25:42.394Z233.904° WSW2025-07-07 12:27:42.394Z146.007° SSE42.752°2025-07-07 12:30:42.394Z75.793° E
5 mins2025-07-07 14:04:42.394Z286.24° WNW2025-07-07 14:06:42.394Z357.386° N38.894°2025-07-07 14:09:42.394Z70.612° E
5 mins2025-07-07 15:43:42.394Z294.513° NW2025-07-07 15:45:42.394Z352.652° N42.256°2025-07-07 15:48:42.394Z93.658° ESE
5 mins2025-07-07 17:22:42.394Z265.685° W2025-07-07 17:24:42.394Z210.262° SW31.673°2025-07-07 17:27:42.394Z143.487° SSE
|